SCP
0 0 0 0 0 0 0 0 0 0 0 0 0 0 0 0 0 0 0 0 0 0 0 0 0 0 0 0 0 0 0 0 0 0 0 0 0 0
0 0 0 0 0 0 0 0 0 0 0 0 0 0 0 0 0 0 0 0 0 0 0 0 0 0 0 0 0 0 0 0 0 0 0 0 0 0
0 0 0 0 0 0 0 0 0 0 0 0 0 0 0 0 0 0 0 0 0 0 0 0 0 0 0 0 0 0 0 0 0 0 0 0 0 0
0 0 0 0 0 0 0 0 0 0 0 0 0 0 0 0 0 0 0 0 0 0 0 0 0 0 0 0 0 0 0 0 0 0 0 0 0 0
0 0 0 0 0 0 0 0 0 0 0 0 0 0 0 0 0 0 0 0 0 0 0 0 0 0 0 0 0 0 0 0 0 0 0 0 0 0
0 0 0 0 0 0 0 0 0 0 0 0 0 0 0 0 0 0 0 0 0 0 0 0 0 0 0 0 0 0 0 0 0 0 0 0 0 0
0 0 0 0 0 0 0 0 0 0 0 0 0 0 0 0 0 0 0 0 0 0 0 0 0 0 0 0 0 0 0 0 0 0 0 0 0 0
0 0 0 0 0 0 0 0 0 0 0 0 0 0 0 0 0 0 0 0 0 0 0 0 0 0 0 0 0 0 0 0 0 0 0 0 0 0
0 0 0 0 0 0 0 0 0 0 0 0 0 0 0 0 0 0 0 0 0 0 0 0 0 0 0 0 0 0 0 0 0 0 0 0 0 0
0 0 0 0 0 0 0 0 0 0 0 0 0 0 0 0 0 0 0 0 0 0 0 0 0 0 0 0 0 0 0 0 0 0 0 0 0 0
0 0 0 0 0 0 0 0 0 0 0 0 0 0 0 0 0 0 0 0 0 0 0 0 0 0 0 0 0 0 0 0 0 0 0 0 0 0
0 0 0 0 0 0 0 0 0 0 0 0 0 0 0 0 0 0 0 0 0 0 0 0 0 0 0 0 0 0 0 0 0 0 0 0 0 0
0 0 0 0 0 0 0 0 0 0 0 0 0 0 0 0 0 0 0 0 0 0 0 0 0 0 0 0 0 0 0 0 0 0 0 0 0 0
0 0 0 0 0 0 0 0 0 0 0 0 0 0 0 0 0 0 0 0 0 0 0 0 0 0 0 0 0 0 0 0 0 0 0 0 0 0
0 0 0 0 0 0 0 0 0 0 0 0 0 0 0 0 0 0 0 0 0 0 0 0 0 0 0 0 0 0 0 0 0 0 0 0 0 0
0 0 0 0 0 0 0 0 0 0 0 0 0 0 0 0 0 0 0 0 0 0 0 0 0 0 0 0 0 0 0 0 0 0 0 0 0 0
0 0 0 0 0 0 0 0 0 0 0 0 0 0 0 0 0 0 0 0 0 0 0 0 0 0 0 0 0 0 0 0 0 0 0 0 0 0
0 0 0 0 0 0 0 0 0 0 0 0 0 0 0 0 0 0 0 0 0 0 0 0 0 0 0 0 0 0 0 0 0 0 0 0 0 0
0 0 0 0 0 0 0 0 0 0 0 0 0 0 0 0 0 0 0 0 0 0 0 0 0 0 0 0 0 0 0 0 0 0 0 0 0 0
0 0 0 0 0 0 0 0 0 0 0 0 0 0 0 0 0 0 0 0 0 0 0 0 0 0 0 0 0 0 0 0 0 0 0 0 0 0
0 0 0 0 0 0 0 0 0 0 0 0 0 0 0 0 0 0 0 0 0 0 0 0 0 0 0 0 0 0 0 0 0 0 0 0 0 0
0 0 0 0 0 0 0 0 0 0 0 0 0 0 0 0 0 0 0 0 0 0 0 0 0 0 0 0 0 0 0 0 0 0 0 0 0 0
0 0 0 0 0 0 0 0 0 0 0 0 0 0 0 0 0 0 0 0 0 0 0 0 0 0 0 0 0 0 0 0 0 0 0 0 0 0
Wind_Speed
2 2 2 2 1 1 1 1 1 3 4 3 2 2 3 3 6 4 4 9 10 11 11 11 11 11 10 10 9 10 10 10 10 11 11 11 11 10
1 1 1 2 1 1 1 1 1 2 4 3 3 4 4 4 7 5 4 10 10 10 10 11 10 11 10 9 9 9 10 10 10 11 11 10 11 11
1 1 2 2 2 1 1 1 2 1 3 4 3 3 3 4 5 4 4 4 5 9 10 10 10 11 11 10 9 9 9 10 10 11 10 10 11 11
2 2 2 2 2 2 2 2 2 2 2 5 4 3 4 4 4 4 4 4 4 8 10 10 10 10 10 11 10 9 9 10 10 10 10 11 11 12
2 2 2 2 2 2 3 2 2 2 2 3 4 3 3 4 4 4 4 4 4 6 9 9 9 10 10 11 11 10 9 9 10 10 10 11 12 12
2 2 2 3 3 3 2 2 2 2 2 2 3 3 3 3 3 4 5 4 5 5 6 7 9 10 10 11 11 11 10 10 10 10 10 11 11 12
2 2 2 3 4 3 2 2 2 1 2 2 2 3 3 4 3 3 4 5 4 2 3 4 4 4 5 8 9 10 11 10 10 10 11 11 11 11
2 2 3 3 4 4 4 3 2 2 2 2 2 3 4 4 3 3 3 5 4 3 4 5 3 3 4 3 8 10 10 11 11 11 11 11 11 12
2 2 2 3 4 3 3 3 3 4 3 2 3 4 4 4 3 3 4 4 4 4 4 4 3 4 4 5 9 9 10 11 11 11 11 12 12 12
2 2 2 3 3 3 2 2 2 2 3 3 3 4 4 3 3 3 3 3 3 2 1 3 3 4 5 4 7 8 9 11 12 11 11 12 12 12
2 2 2 3 4 3 2 2 3 3 4 5 5 5 5 4 2 1 2 2 4 3 1 1 2 4 4 3 4 8 10 11 12 12 13 13 12 11
2 2 3 4 4 3 2 2 3 3 3 3 4 4 3 2 2 1 2 2 2 2 1 1 2 3 4 3 3 4 5 9 12 12 13 14 13 7
2 2 2 4 4 4 3 2 4 3 2 2 2 2 2 2 2 2 2 2 2 3 2 1 1 1 2 4 4 3 4 4 5 7 10 13 13 9
2 2 3 4 5 4 3 4 4 3 1 1 2 2 2 3 3 3 2 2 2 3 3 2 1 2 2 3 4 4 4 4 3 4 5 10 11 12
2 3 4 4 4 3 4 4 2 1 1 1 2 2 2 3 2 2 2 2 2 2 1 2 2 2 1 2 3 3 4 4 3 4 5 5 5 5
2 3 4 3 2 3 2 1 1 1 1 1 2 2 2 2 2 2 2 2 2 3 3 2 2 1 1 2 2 3 3 4 4 5 6 5 4 3
2 1 1 1 1 1 1 1 1 1 1 1 1 1 2 2 2 2 1 1 1 2 4 4 4 2 1 1 2 3 3 4 4 4 5 5 5 4
1 1 1 1 2 2 2 1 1 1 1 1 1 1 1 1 2 2 2 1 1 2 3 3 4 4 3 2 1 2 3 3 4 4 3 4 5 5
1 1 2 2 2 2 2 2 2 2 1 1 1 1 2 1 1 1 1 1 1 2 2 2 3 3 3 4 4 1 2 3 4 4 3 2 4 6
1 2 2 2 2 2 2 2 2 1 1 1 1 1 1 1 1 1 1 1 1 2 2 2 2 2 1 2 3 4 4 3 3 4 4 3 4 7
2 2 2 2 2 2 2 2 2 2 2 1 1 1 1 1 1 1 1 1 1 1 1 2 3 4 2 1 2 3 4 5 4 3 3 4 4 4
2 2 2 2 2 2 2 2 2 2 2 1 1 1 1 1 1 1 1 1 1 1 2 2 2 2 1 1 2 4 5 5 6 6 5 2 1 2
2 2 2 2 2 2 2 2 2 2 2 2 1 1 1 1 1 1 1 1 1 1 1 2 2 2 2 1 2 3 4 5 4 5 4 5 5 7
Wind_Direction
220 227 238 239 236 229 212 201 218 298 298 282 297 307 317 314 322 329 329 329 333 335 337 338 341 345 343 346 346 343 340 338 335 331 328 326 326 327
231 235 252 251 244 238 235 244 228 237 277 286 286 303 311 322 325 332 327 335 339 338 341 342 344 346 346 342 342 340 339 337 335 333 332 332 331 329
265 249 260 260 252 244 242 247 248 234 273 295 295 307 312 315 323 328 326 324 331 338 340 342 344 347 348 347 343 341 340 341 342 341 340 338 337 336
271 264 271 273 273 262 245 249 252 251 262 297 310 318 310 307 313 320 328 330 326 335 341 342 345 347 347 348 346 343 345 346 345 346 346 343 341 337
279 263 263 260 269 274 269 255 256 276 278 289 304 309 308 315 323 323 324 324 328 333 339 343 345 346 349 349 350 349 348 348 350 351 349 346 342 337
289 281 265 253 257 266 267 270 278 281 293 294 302 311 309 314 322 326 328 335 331 333 343 343 342 347 350 349 353 355 354 352 351 350 348 345 341 337
303 302 296 291 293 288 288 284 283 282 285 297 306 315 316 322 314 312 318 321 322 329 332 333 335 340 345 345 349 353 354 352 348 345 344 342 339 337
286 301 305 305 300 297 299 305 295 275 284 282 285 295 295 300 306 309 316 325 314 324 329 317 330 327 330 334 341 348 351 350 348 345 344 343 341 338
270 285 308 305 312 283 287 302 294 299 295 274 270 280 281 286 289 296 306 308 293 299 317 303 315 312 319 329 337 343 349 351 349 346 344 343 341 337
274 271 281 291 289 307 281 279 284 282 291 288 270 273 278 277 263 266 279 300 302 299 309 290 306 305 314 316 329 340 348 350 350 351 349 345 341 336
286 284 285 281 296 325 317 292 302 304 320 318 318 319 320 317 319 322 316 319 311 301 299 282 299 307 304 303 317 336 345 349 350 352 352 349 347 343
289 281 287 296 309 318 293 280 288 302 319 321 326 329 318 293 318 279 253 277 299 290 277 304 304 328 315 300 310 326 338 343 347 349 350 349 348 345
284 288 286 300 309 310 305 281 295 312 304 301 309 322 332 323 306 304 286 262 264 267 264 285 291 296 285 300 310 317 329 332 337 340 344 345 345 346
274 283 290 305 306 307 304 311 325 332 297 305 312 318 322 319 313 309 312 314 288 264 264 262 257 274 295 303 303 316 322 328 335 333 333 337 340 342
284 294 299 303 308 301 313 326 341 321 296 308 302 306 313 310 312 321 334 346 352 342 322 295 280 280 272 275 296 311 316 318 331 334 331 331 328 331
301 300 302 302 313 313 320 317 318 292 297 280 297 314 324 328 327 323 322 337 351 344 338 332 313 281 287 288 281 297 308 309 322 328 326 321 319 317
316 316 311 317 320 320 324 334 326 313 315 327 324 326 330 334 330 329 336 348 353 333 337 342 339 322 262 255 298 300 312 314 314 327 331 325 319 320
304 281 282 292 299 303 298 303 302 298 304 315 314 307 301 306 321 331 341 355 349 332 333 335 342 349 355 336 250 292 317 311 321 327 329 322 319 324
263 271 275 278 282 290 288 285 288 294 297 295 306 305 303 304 311 316 332 347 345 333 328 332 348 7 3 337 321 325 313 320 328 327 324 313 304 312
277 270 275 279 278 278 279 284 289 295 299 299 297 291 290 293 293 302 310 325 324 332 335 339 343 342 313 291 297 310 320 318 321 322 322 316 303 302
283 280 274 274 274 276 279 276 276 276 277 277 277 280 275 279 283 293 298 313 338 322 314 313 304 320 316 334 329 321 320 320 313 306 317 323 327 339
282 280 276 271 272 270 278 274 269 270 269 269 275 279 279 273 265 270 277 286 298 303 307 313 324 339 6 9 332 321 326 331 331 327 315 298 323 335
273 273 275 274 270 269 268 268 262 258 258 261 269 273 267 269 267 262 271 281 299 320 337 336 340 353 353 340 329 327 330 334 339 349 349 343 323 302